This is the latest recevied weather packets stored in our database for station/object KC3VCX. If no packets are shown the sender has not sent any weather packets the latest 1 day(s).
| Time | Temp. | Humidity | Pressure | Rain* | Wind** | Luminosity | Snow |
|---|---|---|---|---|---|---|---|
| 1778036177 | 18.89° C | 56% | 1010.1 hPa | 0 mm | - | 0 W/m² | - |
| 1778035873 | 18.89° C | 56% | 1010 hPa | 0 mm | - | 0 W/m² | - |
| 1778035571 | 18.33° C | 56% | 1010.1 hPa | 0 mm | - | 0 W/m² | - |
| 1778035267 | 18.89° C | 56% | 1009.9 hPa | 0 mm | - | 0 W/m² | - |
| 1778034963 | 18.89° C | 55% | 1009.9 hPa | 0 mm | - | 0 W/m² | - |
| 1778034358 | 18.89° C | 55% | 1010 hPa | 0 mm | - | 0 W/m² | - |
| 1778034055 | 19.44° C | 54% | 1010 hPa | 0 mm | - | 0 W/m² | - |
| 1778033753 | 19.44° C | 53% | 1010.1 hPa | 0 mm | - | 0 W/m² | - |
| 1778033450 | 18.89° C | 54% | 1010.1 hPa | 0 mm | - | 0 W/m² | - |
| 1778033147 | 19.44° C | 54% | 1010.1 hPa | 0 mm | - | 0 W/m² | - |
| 1778032542 | 19.44° C | 53% | 1010.1 hPa | 0 mm | - | 0 W/m² | - |
| 1778032238 | 19.44° C | 53% | 1010.2 hPa | 0 mm | - | 0 W/m² | - |
| 1778031936 | 19.44° C | 53% | 1010.1 hPa | 0 mm | - | 0 W/m² | - |
| 1778031632 | 19.44° C | 53% | 1010 hPa | 0 mm | - | 0 W/m² | - |
| 1778031330 | 19.44° C | 53% | 1010 hPa | 0 mm | - | 0 W/m² | - |
| 1778031026 | 19.44° C | 53% | 1010.1 hPa | 0 mm | - | 0 W/m² | - |
| 1778030722 | 20° C | 52% | 1010 hPa | 0 mm | - | 0 W/m² | - |
| 1778030420 | 20° C | 52% | 1010.1 hPa | 0 mm | - | 0 W/m² | - |
| 1778029814 | 20° C | 52% | 1010.2 hPa | 0 mm | - | 0 W/m² | - |
| 1778028907 | 20° C | 51% | 1010.1 hPa | 0 mm | - | 0 W/m² | - |
| 1778028602 | 20° C | 54% | 1010.2 hPa | 0 mm | - | 0 W/m² | - |
| 1778028300 | 20° C | 53% | 1010.4 hPa | 0 mm | - | 0 W/m² | - |
| 1778027995 | 20° C | 52% | 1010.3 hPa | 0 mm | - | 0 W/m² | - |
| 1778027692 | 20° C | 52% | 1010.5 hPa | 0 mm | - | 0 W/m² | - |
| 1778027085 | 20.56° C | 52% | 1010.2 hPa | 0 mm | - | 1 W/m² | - |
* Rain latest hour (hover to see other rain measurements)
** Current wind speed in m/s (hover to see current wind gust speed)